Location: Star Hoppers Observatory
(42.7905°N, 83.6127°W)
Time: 23:44:58
(UTC-04:00)

Amateur Radio Satellites - All Passes

Search period start: 31 July 2014 23:14
Search period end: 01 August 2014 23:14
Location: Star Hoppers Observatory, 42.7905°N, 83.6127°W

Satellite Date Start Highest point End Downlink Frequencies (MHz)
Time Altitude Azimuth
Oscar 11 31 Jul 23:36:31 23:39:34 19° 267° (W) 23:42:39 145.825 FM, Beacon 2401.500 USB
ISS 31 Jul 23:39:38 23:42:57 79° 144° (SE) 23:46:19 145.800 FM
MaSat-1 31 Jul 23:41:36 23:42:30 11° 322° (NW) 23:43:25 437.345 MHz
PCSat 31 Jul 23:48:10 23:51:43 18° 105° (ESE) 23:55:17 145.825 MHz
UOSAT-12 01 Aug 00:00:46 00:05:12 41° 243° (WSW) 00:09:34 437.025 FM, 437.400 FM
FUNcube-1 01 Aug 00:06:09 00:09:36 23° 265° (W) 00:13:00 145.950 - 145.970 MHz USB
AO-40 01 Aug 00:18:45 06:00:12 38° 181° (S) 10:27:09 Beacon 2401.320
Sapphire 01 Aug 00:56:07 01:01:27 64° 116° (ESE) 01:06:49 437.095 MHz 1200 baud AX-25 AFSK
RS-15 01 Aug 01:12:59 01:20:57 24° 259° (WSW) 01:29:10 29.354 - 29.394 USB, Beacon 29.352 USB
ISS 01 Aug 01:17:09 01:19:58 24° 343° (NNW) 01:22:48 145.800 FM
PCSat 01 Aug 01:29:11 01:34:33 66° 303° (WNW) 01:39:59 145.825 MHz
Oscar 10/S400 01 Aug 01:31:40 02:05:18 62° 183° (S) 10:57:46 145.825 - 145.975 CW/USB, Beacon 145.810 USB
Oscar 16 01 Aug 01:47:08 01:48:53 12° 88° (E) 01:50:38 437.025 USB, Beacon 2401.1428
Uribyol 2 01 Aug 02:32:22 02:35:13 15° 90° (E) 02:38:02 436.500 FM
AO-27 01 Aug 02:33:52 02:36:41 15° 90° (E) 02:39:30 436.795 MHz FM
JAS-1B 01 Aug 02:35:09 02:40:37 17° 82° (E) 02:45:36 435.800 - 435.900 CW/SSB
Sapphire 01 Aug 02:41:04 02:45:20 23° 316° (NW) 02:49:37 437.095 MHz 1200 baud AX-25 AFSK
AO-Echo 01 Aug 02:46:50 02:50:27 20° 92° (E) 02:53:59 ?
Oscar 19 01 Aug 02:54:47 02:59:49 50° 100° (E) 03:04:51 437.125 CW, 437.150 USB
ISS 01 Aug 02:55:07 02:57:31 18° 4° (N) 02:59:56 145.800 FM
Gurwin Techsat 1B 01 Aug 03:14:20 03:17:20 15° 90° (E) 03:20:19 435.225 FM
PCSat 01 Aug 03:16:14 03:19:03 14° 324° (NW) 03:21:53 145.825 MHz
OPAL 01 Aug 03:19:01 03:21:59 16° 58° (ENE) 03:24:57 ?
Oscar 16 01 Aug 03:23:41 03:28:53 85° 285° (WNW) 03:34:04 437.025 USB, Beacon 2401.1428
ITAMSAT 1 01 Aug 03:51:23 03:56:35 77° 103° (ESE) 04:01:45 435.822 SSB
Uribyol 2 01 Aug 04:10:03 04:15:11 69° 287° (WNW) 04:20:18 436.500 FM
AO-27 01 Aug 04:11:33 04:16:43 70° 287° (WNW) 04:21:51 436.795 MHz FM
JAS-1B 01 Aug 04:23:23 04:32:46 82° 104° (ESE) 04:40:37 435.800 - 435.900 CW/SSB
AO-Echo 01 Aug 04:24:41 04:29:32 48° 289° (WNW) 04:34:12 ?
TMSAT-1 01 Aug 04:26:00 04:31:09 50° 100° (E) 04:36:16 436.925 FM
ISS 01 Aug 04:31:47 04:34:56 35° 24° (NNE) 04:38:04 145.800 FM
Oscar 19 01 Aug 04:34:55 04:38:49 22° 297° (WNW) 04:42:43 437.125 CW, 437.150 USB
Uosat F 01 Aug 04:46:56 04:50:09 17° 91° (E) 04:53:20 435.120 FM
Gurwin Techsat 1B 01 Aug 04:52:32 04:57:50 71° 287° (WNW) 05:03:06 435.225 FM
OPAL 01 Aug 04:55:23 05:00:18 69° 255° (WSW) 05:05:16 ?
Oscar 16 01 Aug 05:05:27 05:07:26 12° 303° (WNW) 05:09:25 437.025 USB, Beacon 2401.1428
AO-7 01 Aug 05:30:34 05:38:28 45° 100° (E) 05:46:17 29.400 - 29.500 MHz
ITAMSAT 1 01 Aug 05:32:33 05:35:26 15° 301° (WNW) 05:38:19 435.822 SSB
STRAND 1 01 Aug 05:49:08 05:50:42 11° 57° (ENE) 05:52:17 ?
TMSAT-1 01 Aug 06:06:41 06:10:44 23° 297° (WNW) 06:14:46 436.925 FM
ISS 01 Aug 06:08:32 06:11:39 36° 221° (SW) 06:14:46 145.800 FM
KITSAT 1 01 Aug 06:13:56 06:21:47 57° 114° (ESE) 06:29:39 435.175 FM
JAS-1B 01 Aug 06:14:51 06:22:04 27° 307° (NW) 06:28:36 435.800 - 435.900 CW/SSB
MaSat-1 01 Aug 06:17:10 06:22:17 46° 57° (ENE) 06:27:07 437.345 MHz
Uosat F 01 Aug 06:24:23 06:29:19 58° 288° (WNW) 06:34:13 435.120 FM
Hamsat 01 Aug 06:35:07 06:37:53 17° 92° (E) 06:40:39 145.90 MHz
Gurwin Techsat 1B 01 Aug 06:36:04 06:36:49 10° 305° (NW) 06:37:35 435.225 FM
Saudisat 1A 01 Aug 07:04:17 07:08:07 30° 115° (ESE) 07:11:59 436.775 MHz
AO-7 01 Aug 07:23:29 07:31:12 44° 299° (WNW) 07:38:53 29.400 - 29.500 MHz
STRAND 1 01 Aug 07:23:54 07:29:03 80° 74° (ENE) 07:34:12 ?
JAS-2 01 Aug 07:46:45 07:52:33 64° 101° (E) 07:57:47 435.800 - 435.900 CW/SSB, 435.910 FM
SO-67 01 Aug 07:51:29 07:53:29 15° 92° (E) 07:55:29 435.3500 MHz FM
MaSat-1 01 Aug 07:55:04 07:59:18 25° 256° (WSW) 08:03:19 437.345 MHz
Sapphire 01 Aug 08:01:35 08:04:07 13° 35° (NE) 08:06:39 437.095 MHz 1200 baud AX-25 AFSK
Hamsat 01 Aug 08:09:57 08:14:05 46° 288° (WNW) 08:18:13 145.90 MHz
KITSAT 1 01 Aug 08:10:01 08:17:29 39° 315° (NW) 08:25:01 435.175 FM
PCSat 01 Aug 08:33:42 08:37:51 22° 43° (NE) 08:41:58 145.825 MHz
Saudisat 1A 01 Aug 08:43:38 08:47:38 33° 313° (NW) 08:51:41 436.775 MHz
STRAND 1 01 Aug 09:06:43 09:08:50 12° 271° (W) 09:10:58 ?
AO-7 01 Aug 09:20:09 09:21:49 11° 322° (NW) 09:23:30 29.400 - 29.500 MHz
SO-67 01 Aug 09:23:32 09:26:40 32° 288° (WNW) 09:29:48 435.3500 MHz FM
JAS-2 01 Aug 09:33:03 09:36:58 19° 302° (WNW) 09:40:40 435.800 - 435.900 CW/SSB, 435.910 FM
Sapphire 01 Aug 09:43:19 09:48:42 61° 56° (ENE) 09:54:03 437.095 MHz 1200 baud AX-25 AFSK
HO-68 01 Aug 10:04:40 10:11:14 38° 98° (E) 10:17:46 435.675 MHz FM
KITSAT 1 01 Aug 10:11:05 10:15:35 15° 342° (NNW) 10:20:05 435.175 FM
PCSat 01 Aug 10:16:23 10:21:48 71° 243° (WSW) 10:27:11 145.825 MHz
UKube-1 01 Aug 10:40:37 10:44:50 47° 100° (E) 10:49:01 145.840 MHz, 145.915 MHz
Oscar 11 01 Aug 11:21:44 11:26:05 74° 102° (ESE) 11:30:26 145.825 FM, Beacon 2401.500 USB
Sapphire 01 Aug 11:27:47 11:31:38 20° 254° (WSW) 11:35:28 437.095 MHz 1200 baud AX-25 AFSK
HO-68 01 Aug 11:52:19 11:58:59 44° 296° (WNW) 12:05:37 435.675 MHz FM
FUNcube-1 01 Aug 11:53:19 11:57:28 59° 101° (E) 12:01:39 145.950 - 145.970 MHz USB
KITSAT 1 01 Aug 12:11:00 12:15:08 14° 14° (NNE) 12:19:15 435.175 FM
UKube-1 01 Aug 12:17:48 12:20:41 18° 297° (WNW) 12:23:33 145.840 MHz, 145.915 MHz
SO-50 01 Aug 12:32:10 12:36:35 65° 121° (ESE) 12:41:06 436.795 FM
Oscar 19 01 Aug 12:37:48 12:39:06 11° 56° (ENE) 12:40:24 437.125 CW, 437.150 USB
Oscar 11 01 Aug 13:00:04 13:01:41 12° 299° (WNW) 13:03:17 145.825 FM, Beacon 2401.500 USB
Oscar 16 01 Aug 13:04:06 13:07:46 20° 62° (ENE) 13:11:27 437.025 USB, Beacon 2401.1428
JAS-1B 01 Aug 13:19:23 13:25:59 22° 50° (NE) 13:32:46 435.800 - 435.900 CW/SSB
RS-15 01 Aug 13:23:03 13:33:45 56° 113° (ESE) 13:44:14 29.354 - 29.394 USB, Beacon 29.352 USB
FUNcube-1 01 Aug 13:31:23 13:33:24 13° 297° (WNW) 13:35:26 145.950 - 145.970 MHz USB
ITAMSAT 1 01 Aug 13:33:10 13:36:31 18° 61° (ENE) 13:39:52 435.822 SSB
Uribyol 2 01 Aug 13:50:35 13:54:48 26° 64° (ENE) 13:59:01 436.500 FM
AO-27 01 Aug 13:52:18 13:56:33 26° 64° (ENE) 14:00:48 436.795 MHz FM
AO-Echo 01 Aug 13:59:52 14:04:28 31° 66° (ENE) 14:09:03 ?
KITSAT 1 01 Aug 14:06:13 14:13:29 35° 42° (NE) 14:20:41 435.175 FM
TMSAT-1 01 Aug 14:11:41 14:13:45 12° 57° (ENE) 14:15:49 436.925 FM
UOSAT-12 01 Aug 14:12:16 14:16:42 50° 118° (ESE) 14:21:14 437.025 FM, 437.400 FM
Oscar 19 01 Aug 14:12:28 14:17:34 78° 74° (ENE) 14:22:43 437.125 CW, 437.150 USB
SO-50 01 Aug 14:14:18 14:17:36 20° 320° (NW) 14:20:56 436.795 FM
Gurwin Techsat 1B 01 Aug 14:35:46 14:40:09 27° 65° (ENE) 14:44:32 435.225 FM
Oscar 16 01 Aug 14:41:43 14:46:43 54° 260° (W) 14:51:45 437.025 USB, Beacon 2401.1428
AO-7 01 Aug 14:42:26 14:47:03 16° 45° (NE) 14:51:40 29.400 - 29.500 MHz
JAS-1B 01 Aug 15:05:39 15:14:46 75° 71° (ENE) 15:24:41 435.800 - 435.900 CW/SSB
ITAMSAT 1 01 Aug 15:10:18 15:15:28 67° 258° (WSW) 15:20:41 435.822 SSB
Uribyol 2 01 Aug 15:29:08 15:34:03 42° 261° (W) 15:38:58 436.500 FM
Saudisat 1A 01 Aug 15:29:53 15:33:54 33° 47° (NE) 15:37:52 436.775 MHz
AO-27 01 Aug 15:30:53 15:35:50 42° 261° (W) 15:40:47 436.795 MHz FM
RS-15 01 Aug 15:35:43 15:46:18 49° 317° (NW) 15:56:50 29.354 - 29.394 USB, Beacon 29.352 USB
AO-Echo 01 Aug 15:38:13 15:43:06 37° 263° (W) 15:48:00 ?
TMSAT-1 01 Aug 15:47:32 15:52:50 83° 75° (ENE) 15:58:10 436.925 FM
UOSAT-12 01 Aug 15:53:18 15:57:07 25° 317° (NW) 16:00:59 437.025 FM, 437.400 FM
Oscar 19 01 Aug 15:55:19 15:57:31 13° 271° (W) 15:59:43 437.125 CW, 437.150 USB
Uosat F 01 Aug 16:00:42 16:04:53 27° 65° (ENE) 16:09:04 435.120 FM
KITSAT 1 01 Aug 16:01:27 16:09:27 67° 244° (WSW) 16:17:23 435.175 FM
Gurwin Techsat 1B 01 Aug 16:14:54 16:19:54 42° 262° (W) 16:24:56 435.225 FM
AO-7 01 Aug 16:30:03 16:38:16 65° 66° (ENE) 16:46:30 29.400 - 29.500 MHz
JAS-1B 01 Aug 16:58:21 17:06:01 30° 271° (W) 17:14:17 435.800 - 435.900 CW/SSB
OPAL 01 Aug 17:04:38 17:09:02 28° 98° (E) 17:13:26 ?
Saudisat 1A 01 Aug 17:09:34 17:13:25 30° 245° (WSW) 17:17:14 436.775 MHz
Hamsat 01 Aug 17:30:24 17:32:30 14° 63° (ENE) 17:34:36 145.90 MHz
TMSAT-1 01 Aug 17:31:16 17:33:24 12° 272° (W) 17:35:33 436.925 FM
Uosat F 01 Aug 17:38:48 17:43:29 38° 262° (W) 17:48:12 435.120 FM
RS-15 01 Aug 17:53:51 18:02:12 24° 349° (N) 18:10:36 29.354 - 29.394 USB, Beacon 29.352 USB
JAS-2 01 Aug 17:57:58 18:04:49 37° 66° (ENE) 18:11:09 435.800 - 435.900 CW/SSB, 435.910 FM
KITSAT 1 01 Aug 18:00:39 18:03:17 12° 263° (W) 18:05:55 435.175 FM
AO-7 01 Aug 18:24:31 18:31:32 30° 265° (W) 18:38:37 29.400 - 29.500 MHz
OPAL 01 Aug 18:43:17 18:47:57 37° 294° (WNW) 18:52:39 ?
Hamsat 01 Aug 19:03:52 19:07:58 58° 260° (W) 19:12:09 145.90 MHz
SO-50 01 Aug 19:23:41 19:26:18 15° 35° (NE) 19:28:56 436.795 FM
STRAND 1 01 Aug 19:34:23 19:38:34 25° 94° (E) 19:42:43 ?
JAS-2 01 Aug 19:42:14 19:49:39 49° 261° (W) 19:56:33 435.800 - 435.900 CW/SSB, 435.910 FM
SO-67 01 Aug 19:56:52 20:00:20 88° 77° (ENE) 20:03:50 435.3500 MHz FM
RS-15 01 Aug 20:10:11 20:19:26 29° 25° (NNE) 20:28:49 29.354 - 29.394 USB, Beacon 29.352 USB
MaSat-1 01 Aug 20:10:48 20:13:13 15° 99° (E) 20:15:48 437.345 MHz
HO-68 01 Aug 20:34:27 20:40:37 33° 60° (ENE) 20:46:47 435.675 MHz FM
UOSAT-12 01 Aug 21:02:43 21:04:31 12° 31° (NNE) 21:06:18 437.025 FM, 437.400 FM
SO-50 01 Aug 21:02:55 21:07:41 74° 55° (NE) 21:12:30 436.795 FM
STRAND 1 01 Aug 21:13:08 21:17:53 40° 291° (WNW) 21:22:37 ?
UKube-1 01 Aug 21:36:50 21:41:00 46° 71° (ENE) 21:45:12 145.840 MHz, 145.915 MHz
MaSat-1 01 Aug 21:45:37 21:49:48 58° 300° (WNW) 21:54:38 437.345 MHz
Oscar 11 01 Aug 22:17:25 22:21:39 63° 74° (ENE) 22:25:56 145.825 FM, Beacon 2401.500 USB
HO-68 01 Aug 22:21:02 22:28:00 53° 259° (W) 22:35:00 435.675 MHz FM
RS-15 01 Aug 22:22:55 22:34:00 75° 53° (NE) 22:45:26 29.354 - 29.394 USB, Beacon 29.352 USB
UOSAT-12 01 Aug 22:41:04 22:45:44 55° 52° (NE) 22:50:19 437.025 FM, 437.400 FM
SO-50 01 Aug 22:45:09 22:47:41 14° 251° (WSW) 22:50:13 436.795 FM
FUNcube-1 01 Aug 22:50:34 22:54:43 52° 73° (ENE) 22:58:49 145.950 - 145.970 MHz USB
ISS 01 Aug 22:50:59 22:54:10 45° 140° (SE) 22:57:23 145.800 FM
